QPF
0.00 0.00 0.00 0.01 0.01 0.01 0.01 0.02 0.03 0.02 0.02 0.02 0.02 0.02 0.02 0.02 0.03 0.05 0.06 0.06 0.07 0.08 0.07 0.06 0.06 0.06 0.06 0.05 0.04 0.04 0.03 0.02 0.02 0.01 0.02 0.02 0.03 0.02 0.02 0.02 0.02 0.03 0.03
0.00 0.00 0.00 0.00 0.01 0.01 0.01 0.01 0.01 0.02 0.02 0.02 0.02 0.02 0.03 0.02 0.02 0.03 0.04 0.05 0.06 0.07 0.07 0.06 0.06 0.06 0.07 0.07 0.05 0.03 0.04 0.02 0.02 0.02 0.02 0.02 0.02 0.02 0.02 0.02 0.02 0.03 0.04
0.01 0.01 0.00 0.00 0.00 0.01 0.01 0.00 0.00 0.01 0.02 0.02 0.02 0.02 0.02 0.03 0.03 0.03 0.03 0.04 0.05 0.06 0.07 0.07 0.06 0.06 0.08 0.08 0.08 0.05 0.04 0.03 0.02 0.02 0.02 0.01 0.01 0.02 0.02 0.02 0.02 0.03 0.03
0.01 0.01 0.00 0.00 0.00 0.00 0.00 0.00 0.00 0.01 0.01 0.02 0.02 0.02 0.02 0.02 0.02 0.03 0.03 0.03 0.04 0.05 0.07 0.07 0.07 0.06 0.06 0.07 0.08 0.08 0.05 0.04 0.03 0.02 0.01 0.01 0.01 0.02 0.02 0.02 0.02 0.03 0.03
0.00 0.00 0.00 0.00 0.00 0.00 0.00 0.00 0.01 0.01 0.01 0.02 0.02 0.01 0.01 0.02 0.02 0.02 0.03 0.03 0.03 0.03 0.04 0.04 0.06 0.07 0.07 0.07 0.06 0.06 0.07 0.06 0.04 0.03 0.03 0.02 0.02 0.02 0.02 0.02 0.02 0.02 0.03
0.01 0.01 0.01 0.01 0.00 0.00 0.00 0.01 0.01 0.01 0.01 0.01 0.02 0.02 0.02 0.02 0.02 0.03 0.03 0.03 0.03 0.04 0.03 0.03 0.03 0.05 0.07 0.07 0.07 0.06 0.05 0.06 0.05 0.04 0.03 0.02 0.02 0.02 0.02 0.02 0.02 0.02 0.03
0.01 0.01 0.01 0.01 0.01 0.00 0.00 0.01 0.01 0.01 0.01 0.02 0.03 0.03 0.03 0.03 0.03 0.03 0.03 0.03 0.04 0.05 0.04 0.04 0.03 0.03 0.04 0.06 0.07 0.07 0.07 0.06 0.06 0.04 0.04 0.03 0.03 0.02 0.02 0.02 0.02 0.02 0.02
0.01 0.01 0.01 0.01 0.01 0.01 0.01 0.01 0.01 0.01 0.01 0.02 0.03 0.03 0.03 0.03 0.03 0.04 0.04 0.04 0.04 0.05 0.05 0.04 0.04 0.03 0.04 0.04 0.05 0.06 0.06 0.06 0.06 0.05 0.04 0.04 0.04 0.03 0.03 0.03 0.03 0.03 0.02
0.01 0.01 0.01 0.01 0.01 0.01 0.01 0.01 0.01 0.01 0.01 0.02 0.03 0.03 0.03 0.03 0.03 0.04 0.04 0.04 0.04 0.05 0.06 0.05 0.04 0.04 0.05 0.04 0.03 0.04 0.04 0.04 0.05 0.05 0.05 0.04 0.04 0.04 0.03 0.03 0.03 0.03 0.03
0.01 0.01 0.01 0.01 0.01 0.01 0.01 0.01 0.02 0.01 0.01 0.02 0.03 0.03 0.03 0.03 0.03 0.03 0.03 0.03 0.04 0.04 0.05 0.05 0.05 0.04 0.04 0.04 0.03 0.03 0.04 0.03 0.02 0.03 0.03 0.03 0.02 0.02 0.02 0.02 0.02 0.02 0.02
0.01 0.02 0.01 0.01 0.01 0.01 0.02 0.02 0.02 0.02 0.02 0.02 0.03 0.03 0.04 0.04 0.04 0.03 0.03 0.03 0.03 0.04 0.04 0.04 0.04 0.04 0.03 0.03 0.03 0.03 0.03 0.03 0.03 0.03 0.03 0.02 0.02 0.01 0.01 0.01 0.01 0.01 0.01
0.02 0.02 0.02 0.02 0.01 0.01 0.02 0.02 0.02 0.02 0.02 0.03 0.03 0.04 0.04 0.05 0.05 0.04 0.04 0.04 0.03 0.03 0.03 0.03 0.04 0.04 0.03 0.03 0.03 0.03 0.03 0.03 0.03 0.03 0.03 0.02 0.02 0.02 0.01 0.01 0.01 0.01 0.01
0.02 0.02 0.02 0.02 0.02 0.02 0.02 0.03 0.04 0.04 0.04 0.04 0.04 0.04 0.05 0.05 0.05 0.05 0.04 0.04 0.04 0.03 0.03 0.04 0.03 0.04 0.04 0.03 0.03 0.03 0.02 0.02 0.02 0.02 0.02 0.01 0.01 0.01 0.01 0.01 0.01 0.01 0.01
0.02 0.03 0.03 0.03 0.04 0.05 0.05 0.05 0.06 0.06 0.05 0.05 0.04 0.04 0.05 0.05 0.04 0.04 0.04 0.04 0.03 0.03 0.04 0.04 0.03 0.03 0.03 0.03 0.03 0.02 0.02 0.01 0.01 0.01 0.01 0.01 0.01 0.01 0.01 0.01 0.01 0.01 0.01
0.03 0.04 0.04 0.04 0.04 0.05 0.05 0.05 0.05 0.05 0.05 0.04 0.04 0.04 0.04 0.04 0.04 0.03 0.03 0.03 0.03 0.03 0.04 0.03 0.03 0.03 0.02 0.02 0.02 0.02 0.02 0.02 0.01 0.01 0.01 0.01 0.01 0.01 0.01 0.01 0.01 0.01 0.01
0.03 0.04 0.04 0.04 0.04 0.04 0.04 0.04 0.04 0.04 0.04 0.04 0.04 0.04 0.04 0.04 0.04 0.03 0.03 0.03 0.03 0.03 0.03 0.02 0.02 0.02 0.02 0.02 0.03 0.02 0.02 0.01 0.01 0.02 0.01 0.01 0.01 0.01 0.01 0.01 0.01 0.01 0.02
0.03 0.03 0.03 0.03 0.04 0.04 0.03 0.03 0.03 0.04 0.05 0.05 0.05 0.05 0.05 0.05 0.04 0.03 0.03 0.03 0.03 0.02 0.02 0.02 0.01 0.02 0.02 0.02 0.02 0.02 0.02 0.02 0.02 0.02 0.02 0.02 0.02 0.02 0.01 0.01 0.01 0.01 0.01
0.04 0.04 0.04 0.04 0.04 0.05 0.05 0.03 0.03 0.03 0.04 0.04 0.04 0.04 0.04 0.04 0.03 0.03 0.02 0.02 0.02 0.02 0.02 0.02 0.02 0.02 0.02 0.02 0.02 0.03 0.02 0.02 0.03 0.03 0.02 0.02 0.02 0.02 0.02 0.02 0.01 0.01 0.02
0.05 0.05 0.04 0.04 0.05 0.06 0.06 0.05 0.04 0.04 0.04 0.04 0.03 0.03 0.03 0.03 0.02 0.02 0.02 0.01 0.01 0.01 0.02 0.02 0.02 0.02 0.02 0.02 0.02 0.02 0.02 0.02 0.02 0.02 0.02 0.02 0.02 0.02 0.02 0.02 0.02 0.02 0.02
0.05 0.05 0.05 0.05 0.05 0.06 0.06 0.05 0.05 0.04 0.04 0.03 0.03 0.03 0.03 0.02 0.02 0.02 0.02 0.01 0.01 0.01 0.01 0.01 0.02 0.02 0.02 0.02 0.02 0.02 0.02 0.02 0.03 0.02 0.02 0.02 0.02 0.02 0.02 0.02 0.02 0.02 0.02
0.04 0.04 0.04 0.04 0.04 0.05 0.05 0.05 0.04 0.03 0.03 0.03 0.03 0.03 0.03 0.03 0.03 0.02 0.02 0.02 0.02 0.01 0.01 0.01 0.01 0.01 0.01 0.01 0.02 0.02 0.02 0.02 0.02 0.03 0.03 0.03 0.02 0.02 0.02 0.02 0.02 0.02 0.03
0.03 0.03 0.03 0.03 0.03 0.03 0.03 0.03 0.03 0.03 0.03 0.03 0.03 0.03 0.03 0.02 0.02 0.02 0.02 0.02 0.02 0.02 0.01 0.01 0.01 0.01 0.02 0.02 0.02 0.02 0.02 0.02 0.02 0.02 0.02 0.03 0.03 0.03 0.03 0.03 0.03 0.03 0.02
0.03 0.03 0.02 0.02 0.02 0.02 0.02 0.02 0.02 0.02 0.02 0.02 0.02 0.02 0.02 0.02 0.02 0.01 0.02 0.02 0.02 0.02 0.01 0.01 0.01 0.01 0.01 0.02 0.02 0.02 0.02 0.02 0.02 0.02 0.02 0.02 0.02 0.02 0.02 0.02 0.02 0.02 0.02
0.03 0.03 0.02 0.02 0.02 0.02 0.02 0.02 0.02 0.01 0.01 0.01 0.01 0.01 0.01 0.01 0.01 0.01 0.02 0.02 0.02 0.02 0.01 0.01 0.01 0.01 0.01 0.02 0.02 0.02 0.02 0.02 0.02 0.02 0.02 0.02 0.02 0.02 0.02 0.02 0.02 0.02 0.02
0.02 0.02 0.02 0.01 0.01 0.01 0.01 0.01 0.01 0.01 0.01 0.01 0.01 0.01 0.01 0.01 0.01 0.01 0.01 0.01 0.01 0.01 0.01 0.01 0.01 0.01 0.01 0.01 0.02 0.02 0.02 0.02 0.02 0.02 0.02 0.02 0.02 0.02 0.02 0.02 0.02 0.02 0.02
0.02 0.01 0.01 0.01 0.01 0.01 0.01 0.01 0.01 0.01 0.01 0.01 0.01 0.00 0.00 0.01 0.00 0.00 0.01 0.01 0.01 0.01 0.01 0.00 0.00 0.01 0.01 0.01 0.01 0.02 0.02 0.02 0.02 0.02 0.02 0.02 0.02 0.02 0.02 0.02 0.01 0.01 0.01
MSLP
1016.44 1015.96 1015.59 1015.34 1015.23 1015.25 1015.38 1015.60 1015.88 1016.19 1016.48 1016.74 1016.94 1017.06 1017.10 1017.06 1016.96 1016.80 1016.60 1016.36 1016.10 1015.85 1015.60 1015.39 1015.23 1015.14 1015.15 1015.26 1015.47 1015.78 1016.16 1016.58 1016.99 1017.37 1017.66 1017.86 1017.97 1017.98 1017.95 1017.90 1017.87 1017.90 1018.01
1016.52 1015.96 1015.52 1015.20 1015.02 1014.98 1015.06 1015.24 1015.50 1015.79 1016.08 1016.35 1016.56 1016.71 1016.79 1016.80 1016.75 1016.66 1016.52 1016.35 1016.15 1015.93 1015.71 1015.51 1015.33 1015.21 1015.16 1015.21 1015.36 1015.61 1015.96 1016.36 1016.78 1017.20 1017.57 1017.86 1018.08 1018.22 1018.31 1018.38 1018.45 1018.56 1018.73
1016.73 1016.13 1015.62 1015.23 1014.98 1014.87 1014.89 1015.01 1015.22 1015.46 1015.72 1015.97 1016.17 1016.33 1016.43 1016.49 1016.49 1016.46 1016.40 1016.30 1016.17 1016.01 1015.83 1015.64 1015.45 1015.30 1015.21 1015.21 1015.30 1015.50 1015.81 1016.19 1016.62 1017.07 1017.50 1017.88 1018.20 1018.45 1018.65 1018.82 1018.99 1019.17 1019.39
1017.06 1016.41 1015.85 1015.40 1015.08 1014.90 1014.84 1014.89 1015.02 1015.21 1015.41 1015.62 1015.80 1015.95 1016.07 1016.16 1016.22 1016.25 1016.26 1016.24 1016.18 1016.08 1015.95 1015.78 1015.61 1015.44 1015.32 1015.27 1015.31 1015.46 1015.72 1016.08 1016.50 1016.97 1017.43 1017.87 1018.27 1018.61 1018.90 1019.16 1019.40 1019.66 1019.93
1017.44 1016.76 1016.14 1015.64 1015.25 1014.99 1014.86 1014.83 1014.89 1015.00 1015.14 1015.30 1015.45 1015.59 1015.72 1015.84 1015.94 1016.04 1016.12 1016.17 1016.19 1016.15 1016.07 1015.94 1015.78 1015.62 1015.47 1015.39 1015.39 1015.50 1015.71 1016.03 1016.43 1016.89 1017.37 1017.83 1018.27 1018.66 1019.02 1019.34 1019.65 1019.95 1020.28
1017.81 1017.09 1016.44 1015.87 1015.42 1015.09 1014.88 1014.77 1014.75 1014.80 1014.89 1015.00 1015.12 1015.25 1015.38 1015.53 1015.68 1015.83 1015.97 1016.10 1016.18 1016.21 1016.19 1016.10 1015.97 1015.82 1015.67 1015.57 1015.54 1015.61 1015.78 1016.06 1016.43 1016.85 1017.31 1017.78 1018.22 1018.64 1019.02 1019.38 1019.73 1020.08 1020.45
1018.12 1017.36 1016.66 1016.04 1015.52 1015.13 1014.85 1014.67 1014.58 1014.57 1014.60 1014.67 1014.77 1014.89 1015.03 1015.20 1015.38 1015.58 1015.79 1015.98 1016.13 1016.23 1016.26 1016.23 1016.14 1016.02 1015.90 1015.80 1015.76 1015.80 1015.94 1016.18 1016.50 1016.89 1017.31 1017.75 1018.17 1018.58 1018.97 1019.35 1019.72 1020.10 1020.50
1018.33 1017.53 1016.78 1016.10 1015.53 1015.07 1014.73 1014.49 1014.34 1014.26 1014.25 1014.28 1014.36 1014.47 1014.62 1014.80 1015.02 1015.26 1015.52 1015.76 1015.98 1016.14 1016.25 1016.28 1016.26 1016.19 1016.11 1016.04 1016.02 1016.06 1016.18 1016.39 1016.68 1017.02 1017.40 1017.80 1018.20 1018.58 1018.96 1019.33 1019.71 1020.11 1020.53
1018.45 1017.60 1016.80 1016.08 1015.45 1014.94 1014.53 1014.23 1014.02 1013.90 1013.83 1013.83 1013.88 1013.98 1014.12 1014.32 1014.55 1014.83 1015.12 1015.42 1015.69 1015.92 1016.10 1016.21 1016.26 1016.27 1016.26 1016.25 1016.28 1016.35 1016.49 1016.70 1016.96 1017.28 1017.63 1017.99 1018.35 1018.71 1019.07 1019.43 1019.80 1020.20 1020.62
1018.51 1017.63 1016.79 1016.02 1015.34 1014.77 1014.31 1013.95 1013.68 1013.50 1013.38 1013.34 1013.35 1013.42 1013.55 1013.74 1013.99 1014.28 1014.60 1014.93 1015.26 1015.55 1015.80 1016.00 1016.14 1016.25 1016.33 1016.41 1016.51 1016.64 1016.82 1017.06 1017.34 1017.65 1017.98 1018.33 1018.67 1019.01 1019.35 1019.69 1020.05 1020.44 1020.85
1018.59 1017.68 1016.81 1016.01 1015.29 1014.67 1014.15 1013.73 1013.39 1013.15 1012.98 1012.87 1012.84 1012.87 1012.97 1013.14 1013.38 1013.66 1013.99 1014.35 1014.71 1015.06 1015.38 1015.66 1015.90 1016.11 1016.30 1016.49 1016.68 1016.90 1017.15 1017.44 1017.76 1018.10 1018.45 1018.79 1019.14 1019.47 1019.80 1020.13 1020.48 1020.84 1021.24
1018.76 1017.84 1016.95 1016.13 1015.38 1014.71 1014.14 1013.66 1013.26 1012.95 1012.71 1012.54 1012.45 1012.43 1012.48 1012.61 1012.81 1013.08 1013.40 1013.76 1014.15 1014.53 1014.91 1015.26 1015.59 1015.90 1016.20 1016.49 1016.79 1017.11 1017.45 1017.81 1018.19 1018.58 1018.96 1019.34 1019.70 1020.04 1020.37 1020.70 1021.04 1021.38 1021.75
1019.06 1018.15 1017.27 1016.44 1015.67 1014.98 1014.37 1013.83 1013.37 1012.99 1012.68 1012.44 1012.28 1012.20 1012.19 1012.27 1012.43 1012.66 1012.95 1013.30 1013.68 1014.08 1014.49 1014.90 1015.30 1015.69 1016.07 1016.46 1016.86 1017.27 1017.69 1018.13 1018.58 1019.03 1019.46 1019.88 1020.27 1020.65 1020.99 1021.33 1021.66 1021.99 1022.33
1019.53 1018.65 1017.80 1016.98 1016.22 1015.51 1014.87 1014.29 1013.78 1013.34 1012.97 1012.67 1012.44 1012.29 1012.22 1012.24 1012.34 1012.52 1012.77 1013.08 1013.44 1013.83 1014.25 1014.68 1015.11 1015.55 1015.99 1016.45 1016.91 1017.40 1017.89 1018.40 1018.91 1019.41 1019.90 1020.36 1020.80 1021.20 1021.58 1021.93 1022.26 1022.58 1022.90
1020.14 1019.32 1018.51 1017.73 1016.98 1016.28 1015.63 1015.04 1014.50 1014.02 1013.60 1013.24 1012.96 1012.75 1012.62 1012.58 1012.62 1012.74 1012.94 1013.20 1013.52 1013.88 1014.28 1014.69 1015.12 1015.57 1016.03 1016.51 1017.01 1017.53 1018.06 1018.61 1019.15 1019.70 1020.23 1020.73 1021.21 1021.64 1022.05 1022.42 1022.76 1023.08 1023.38
1020.85 1020.09 1019.34 1018.61 1017.90 1017.23 1016.60 1016.01 1015.46 1014.97 1014.52 1014.13 1013.81 1013.57 1013.39 1013.30 1013.29 1013.36 1013.50 1013.71 1013.97 1014.28 1014.62 1014.99 1015.39 1015.80 1016.24 1016.70 1017.19 1017.70 1018.23 1018.78 1019.34 1019.90 1020.45 1020.97 1021.47 1021.94 1022.36 1022.75 1023.11 1023.44 1023.74
1021.57 1020.88 1020.20 1019.53 1018.88 1018.26 1017.67 1017.10 1016.57 1016.08 1015.64 1015.24 1014.91 1014.64 1014.44 1014.31 1014.26 1014.29 1014.38 1014.53 1014.73 1014.97 1015.25 1015.56 1015.89 1016.25 1016.63 1017.03 1017.47 1017.94 1018.43 1018.95 1019.48 1020.03 1020.57 1021.10 1021.60 1022.08 1022.53 1022.94 1023.31 1023.65 1023.96
1022.25 1021.63 1021.01 1020.41 1019.83 1019.26 1018.72 1018.20 1017.70 1017.24 1016.82 1016.44 1016.11 1015.84 1015.63 1015.49 1015.42 1015.41 1015.46 1015.56 1015.70 1015.88 1016.09 1016.32 1016.58 1016.85 1017.15 1017.48 1017.84 1018.24 1018.66 1019.12 1019.61 1020.11 1020.62 1021.13 1021.63 1022.11 1022.56 1022.98 1023.37 1023.73 1024.06
1022.85 1022.28 1021.73 1021.19 1020.67 1020.17 1019.68 1019.21 1018.76 1018.34 1017.95 1017.59 1017.29 1017.03 1016.84 1016.70 1016.61 1016.58 1016.60 1016.66 1016.76 1016.88 1017.02 1017.18 1017.35 1017.54 1017.76 1018.00 1018.27 1018.58 1018.93 1019.31 1019.73 1020.17 1020.64 1021.11 1021.58 1022.05 1022.50 1022.93 1023.33 1023.71 1024.06
1023.34 1022.82 1022.33 1021.85 1021.39 1020.94 1020.51 1020.09 1019.68 1019.30 1018.95 1018.63 1018.35 1018.12 1017.94 1017.80 1017.72 1017.69 1017.69 1017.72 1017.78 1017.85 1017.93 1018.02 1018.12 1018.23 1018.36 1018.52 1018.71 1018.93 1019.20 1019.50 1019.85 1020.23 1020.64 1021.06 1021.51 1021.95 1022.39 1022.82 1023.23 1023.62 1023.98
1023.75 1023.28 1022.82 1022.39 1021.98 1021.58 1021.19 1020.82 1020.46 1020.11 1019.79 1019.50 1019.25 1019.04 1018.87 1018.76 1018.68 1018.64 1018.63 1018.64 1018.67 1018.70 1018.74 1018.77 1018.81 1018.86 1018.92 1019.00 1019.11 1019.26 1019.45 1019.68 1019.96 1020.28 1020.63 1021.01 1021.42 1021.83 1022.25 1022.67 1023.08 1023.48 1023.85
1024.11 1023.67 1023.26 1022.87 1022.50 1022.14 1021.78 1021.44 1021.11 1020.79 1020.50 1020.23 1020.00 1019.81 1019.66 1019.55 1019.48 1019.44 1019.42 1019.41 1019.41 1019.41 1019.40 1019.39 1019.38 1019.37 1019.37 1019.40 1019.44 1019.53 1019.66 1019.83 1020.06 1020.32 1020.62 1020.96 1021.33 1021.71 1022.11 1022.51 1022.91 1023.30 1023.68
1024.44 1024.04 1023.67 1023.32 1022.98 1022.65 1022.33 1022.01 1021.70 1021.40 1021.12 1020.87 1020.66 1020.48 1020.33 1020.23 1020.16 1020.11 1020.07 1020.05 1020.02 1019.99 1019.95 1019.89 1019.83 1019.78 1019.73 1019.70 1019.70 1019.74 1019.82 1019.95 1020.13 1020.35 1020.61 1020.92 1021.25 1021.60 1021.97 1022.35 1022.73 1023.10 1023.47
1024.75 1024.40 1024.07 1023.75 1023.45 1023.15 1022.85 1022.56 1022.27 1021.99 1021.72 1021.49 1021.28 1021.10 1020.97 1020.86 1020.78 1020.72 1020.66 1020.61 1020.55 1020.48 1020.40 1020.30 1020.20 1020.09 1020.00 1019.93 1019.89 1019.89 1019.93 1020.03 1020.17 1020.36 1020.60 1020.87 1021.17 1021.50 1021.84 1022.19 1022.54 1022.88 1023.22
1025.03 1024.73 1024.44 1024.17 1023.91 1023.64 1023.37 1023.10 1022.83 1022.57 1022.33 1022.10 1021.90 1021.73 1021.59 1021.48 1021.39 1021.31 1021.23 1021.14 1021.05 1020.93 1020.80 1020.65 1020.50 1020.35 1020.21 1020.10 1020.02 1019.99 1020.00 1020.07 1020.19 1020.36 1020.57 1020.82 1021.10 1021.39 1021.70 1022.02 1022.33 1022.64 1022.94
1025.24 1024.99 1024.76 1024.53 1024.31 1024.08 1023.85 1023.62 1023.38 1023.14 1022.91 1022.71 1022.52 1022.36 1022.22 1022.10 1021.98 1021.88 1021.77 1021.64 1021.50 1021.34 1021.15 1020.95 1020.75 1020.55 1020.37 1020.21 1020.10 1020.04 1020.03 1020.07 1020.18 1020.33 1020.52 1020.75 1021.00 1021.27 1021.55 1021.83 1022.11 1022.38 1022.63
Thickness
5510 5510 5510 5511 5512 5513 5513 5514 5515 5516 5516 5516 5516 5517 5517 5517 5517 5516 5515 5514 5513 5511 5510 5509 5509 5508 5508 5508 5507 5507 5508 5508 5506 5508 5507 5508 5508 5509 5510 5510 5511 5513 5514
5500 5500 5501 5502 5503 5503 5504 5505 5506 5507 5507 5507 5507 5507 5507 5508 5507 5506 5506 5505 5503 5502 5501 5500 5500 5500 5499 5499 5499 5499 5499 5499 5498 5497 5497 5497 5497 5498 5499 5499 5500 5501 5502
5490 5490 5491 5493 5493 5494 5494 5495 5496 5496 5497 5497 5497 5497 5498 5498 5498 5498 5497 5496 5495 5495 5494 5493 5492 5491 5491 5491 5490 5490 5490 5490 5490 5488 5487 5486 5486 5487 5487 5488 5488 5489 5490
5479 5480 5482 5483 5484 5485 5485 5486 5486 5486 5487 5487 5487 5487 5488 5488 5488 5488 5488 5487 5487 5486 5486 5485 5484 5484 5484 5483 5483 5482 5481 5481 5480 5478 5477 5476 5476 5476 5476 5476 5476 5477 5478
5469 5470 5472 5473 5474 5475 5475 5476 5476 5476 5477 5477 5477 5477 5478 5478 5479 5479 5478 5479 5478 5478 5477 5477 5476 5476 5476 5475 5475 5474 5473 5472 5470 5469 5468 5467 5466 5466 5466 5465 5465 5465 5466
5458 5460 5461 5462 5463 5464 5465 5466 5466 5466 5466 5467 5467 5468 5468 5469 5470 5470 5469 5469 5469 5469 5468 5468 5467 5467 5466 5466 5466 5466 5466 5465 5463 5461 5461 5460 5460 5458 5457 5456 5454 5454 5455
5448 5450 5451 5452 5453 5454 5455 5455 5456 5456 5456 5457 5458 5459 5459 5460 5461 5461 5461 5460 5460 5460 5459 5458 5458 5457 5457 5456 5456 5457 5457 5457 5456 5455 5455 5454 5452 5451 5449 5446 5444 5444 5445
5437 5439 5441 5442 5443 5443 5444 5445 5445 5446 5446 5447 5448 5449 5450 5450 5451 5452 5451 5451 5450 5450 5450 5449 5448 5448 5447 5447 5446 5446 5445 5445 5446 5446 5447 5446 5444 5442 5440 5439 5437 5434 5433
5427 5429 5431 5432 5433 5433 5434 5435 5436 5436 5436 5437 5438 5439 5440 5441 5441 5442 5442 5441 5440 5440 5439 5439 5439 5438 5438 5438 5437 5436 5435 5434 5434 5435 5435 5435 5434 5432 5430 5427 5424 5422 5422
5417 5420 5421 5422 5423 5424 5425 5425 5426 5427 5426 5427 5428 5429 5429 5431 5432 5433 5432 5431 5430 5429 5429 5429 5428 5428 5428 5428 5426 5426 5424 5424 5423 5423 5423 5423 5422 5421 5419 5418 5416 5413 5410
5406 5409 5411 5412 5414 5414 5415 5416 5416 5417 5417 5417 5418 5418 5419 5420 5421 5422 5422 5421 5420 5419 5418 5417 5417 5418 5418 5417 5417 5416 5416 5414 5413 5412 5411 5410 5410 5408 5407 5406 5404 5403 5401
5396 5398 5400 5402 5403 5405 5405 5406 5406 5406 5406 5407 5407 5407 5408 5409 5410 5410 5411 5410 5410 5408 5407 5406 5406 5406 5407 5407 5406 5406 5405 5404 5402 5400 5399 5398 5397 5396 5395 5394 5392 5391 5390
5385 5387 5389 5391 5393 5394 5395 5396 5396 5395 5396 5396 5396 5397 5397 5398 5398 5399 5399 5399 5398 5397 5396 5395 5395 5395 5395 5395 5394 5394 5393 5392 5390 5389 5387 5386 5385 5384 5383 5381 5380 5379 5378
5374 5376 5378 5380 5381 5383 5384 5386 5386 5386 5386 5386 5385 5386 5386 5386 5387 5388 5388 5387 5387 5387 5385 5384 5384 5383 5383 5383 5382 5381 5380 5380 5379 5377 5376 5374 5373 5372 5371 5370 5369 5368 5367
5363 5365 5368 5369 5370 5371 5373 5374 5375 5376 5377 5377 5376 5376 5377 5377 5378 5380 5379 5378 5378 5377 5375 5374 5372 5371 5370 5369 5369 5368 5368 5367 5366 5365 5365 5364 5362 5361 5360 5359 5358 5357 5355
5353 5355 5357 5359 5360 5361 5362 5362 5364 5366 5367 5367 5368 5368 5368 5369 5369 5370 5369 5369 5368 5368 5366 5363 5362 5360 5359 5358 5358 5357 5356 5355 5355 5354 5353 5352 5352 5350 5349 5348 5347 5345 5343
5342 5344 5347 5349 5350 5352 5352 5353 5353 5354 5355 5356 5357 5358 5358 5359 5359 5359 5359 5358 5358 5357 5355 5353 5351 5350 5349 5348 5347 5347 5346 5345 5344 5343 5342 5341 5341 5340 5339 5337 5335 5334 5332
5332 5334 5336 5338 5340 5341 5342 5343 5343 5343 5343 5343 5344 5345 5347 5348 5348 5348 5348 5347 5345 5344 5343 5342 5341 5340 5339 5338 5337 5336 5335 5334 5333 5333 5332 5331 5330 5329 5328 5326 5325 5324 5322
5322 5324 5326 5328 5329 5330 5331 5332 5333 5333 5333 5332 5332 5333 5335 5336 5336 5336 5336 5335 5334 5332 5331 5331 5330 5330 5329 5328 5327 5326 5325 5324 5323 5322 5322 5321 5320 5318 5317 5316 5315 5315 5313
5311 5314 5316 5318 5319 5319 5320 5321 5322 5322 5322 5322 5322 5322 5323 5324 5324 5324 5324 5323 5322 5322 5321 5320 5320 5319 5319 5318 5317 5316 5315 5314 5314 5313 5312 5311 5310 5309 5308 5307 5306 5305 5304
5301 5303 5306 5308 5308 5309 5309 5310 5310 5311 5311 5311 5311 5312 5314 5314 5313 5313 5312 5312 5312 5311 5310 5310 5309 5309 5309 5308 5307 5306 5306 5305 5304 5303 5302 5301 5301 5300 5300 5299 5298 5296 5294
5290 5292 5294 5295 5296 5297 5298 5298 5299 5299 5300 5300 5300 5301 5303 5302 5302 5302 5301 5301 5300 5300 5299 5299 5299 5298 5298 5298 5297 5297 5296 5295 5294 5293 5293 5292 5292 5292 5291 5290 5288 5286 5285
5278 5280 5281 5283 5284 5285 5286 5286 5287 5288 5288 5288 5289 5290 5290 5290 5290 5290 5290 5289 5289 5288 5288 5288 5288 5288 5288 5288 5288 5287 5287 5286 5285 5285 5284 5283 5283 5283 5282 5280 5278 5277 5275
5267 5269 5270 5271 5271 5272 5274 5274 5275 5276 5277 5277 5278 5278 5278 5278 5278 5278 5278 5278 5278 5277 5277 5277 5278 5278 5278 5278 5278 5278 5278 5277 5277 5276 5275 5274 5274 5273 5272 5270 5269 5267 5266
5255 5257 5258 5258 5259 5261 5262 5263 5264 5265 5266 5266 5267 5267 5267 5267 5267 5267 5267 5267 5267 5267 5267 5268 5268 5268 5268 5268 5268 5268 5269 5269 5268 5267 5267 5266 5265 5263 5262 5260 5259 5258 5256
5244 5245 5246 5247 5248 5250 5251 5253 5253 5254 5255 5255 5256 5256 5256 5257 5257 5257 5257 5257 5257 5258 5258 5258 5259 5259 5259 5259 5260 5260 5260 5260 5260 5259 5259 5258 5256 5255 5253 5252 5250 5249 5247